East Lindsay
DateTemperatureDew Point
09/05 - 07:45 PM72.2°61.2°
09/05 - 07:30 PM74.1°61.2°
09/05 - 07:15 PM76.1°61.2°
09/05 - 07:00 PM78.9°61.4°
09/05 - 06:45 PM81.7°61.4°
09/05 - 06:30 PM84.6°61.2°
09/05 - 06:15 PM87.6°59.9°
09/05 - 06:00 PM90.3°59.0°
09/05 - 05:45 PM92.8°57.1°
09/05 - 05:30 PM94.2°57.3°
09/05 - 05:15 PM96.0°57.4°
09/05 - 05:00 PM95.0°57.6°
09/05 - 04:45 PM93.3°57.4°
09/05 - 04:30 PM93.1°56.7°
09/05 - 04:15 PM93.1°57.4°
09/05 - 04:00 PM93.0°57.9°
09/05 - 03:45 PM92.5°57.2°
09/05 - 03:30 PM92.8°58.3°
09/05 - 03:15 PM94.3°60.4°
09/05 - 03:00 PM94.5°61.1°
09/05 - 02:45 PM92.3°60.7°
09/05 - 02:30 PM90.6°60.5°
09/05 - 02:15 PM91.0°61.1°
09/05 - 02:00 PM89.8°60.7°
09/05 - 01:45 PM89.7°61.3°
09/05 - 01:30 PM88.4°60.8°
09/05 - 01:15 PM88.2°60.4°
09/05 - 01:00 PM87.1°60.4°
09/05 - 12:45 PM85.3°59.8°
09/05 - 12:30 PM84.6°59.3°
09/05 - 12:15 PM84.1°59.4°
09/05 - 12:00 PM82.7°59.0°
09/05 - 11:45 AM82.1°58.8°
09/05 - 11:30 AM81.1°58.4°
09/05 - 11:15 AM80.0°58.3°
09/05 - 11:00 AM78.9°57.8°
09/05 - 10:45 AM77.9°57.7°
09/05 - 10:30 AM77.6°58.1°
09/05 - 10:15 AM76.7°57.9°
09/05 - 10:00 AM75.1°57.8°
09/05 - 09:45 AM74.2°57.5°
09/05 - 09:30 AM73.7°58.0°
09/05 - 09:15 AM72.5°57.8°
09/05 - 09:00 AM71.9°57.8°
09/05 - 08:45 AM70.9°57.9°
09/05 - 08:30 AM69.1°57.4°
09/05 - 08:15 AM67.1°56.7°
09/05 - 08:00 AM65.7°56.1°
09/05 - 07:45 AM64.6°56.4°
09/05 - 07:30 AM62.8°56.4°
09/05 - 07:15 AM59.9°57.6°
09/05 - 07:00 AM57.5°56.9°
09/05 - 06:45 AM56.4°55.9°
09/05 - 06:30 AM55.9°55.3°
09/05 - 06:15 AM55.7°55.1°
09/05 - 06:00 AM55.5°54.8°
09/05 - 05:45 AM55.6°54.8°
09/05 - 05:30 AM55.6°54.7°
09/05 - 05:15 AM56.0°54.9°
09/05 - 05:00 AM56.2°54.9°
09/05 - 04:45 AM56.4°54.9°
09/05 - 04:30 AM56.9°55.1°
09/05 - 04:15 AM57.3°55.3°
09/05 - 04:00 AM57.8°55.6°
09/05 - 03:45 AM58.3°55.7°
09/05 - 03:30 AM58.8°55.8°
09/05 - 03:15 AM59.2°55.7°
09/05 - 03:00 AM59.6°55.7°
09/05 - 02:45 AM59.7°55.5°
09/05 - 02:30 AM60.3°55.6°
09/05 - 02:15 AM61.2°55.6°
09/05 - 02:00 AM61.8°55.6°
09/05 - 01:45 AM62.2°55.9°
09/05 - 01:30 AM62.2°56.6°
09/05 - 01:15 AM61.2°57.5°
09/05 - 01:00 AM60.0°58.8°
09/05 - 12:45 AM60.4°59.6°
09/05 - 12:30 AM60.7°59.8°
09/05 - 12:15 AM61.0°59.9°
09/05 - 12:00 AM61.3°60.0°
09/04 - 11:45 PM61.6°60.1°
09/04 - 11:30 PM61.8°60.2°
09/04 - 11:15 PM62.3°60.5°
09/04 - 11:00 PM62.8°60.7°
09/04 - 10:45 PM63.1°60.7°
09/04 - 10:30 PM63.6°60.7°
09/04 - 10:15 PM64.0°60.5°
09/04 - 10:00 PM64.7°60.7°
09/04 - 09:45 PM65.4°60.9°
09/04 - 09:30 PM66.3°61.2°
09/04 - 09:15 PM67.0°60.7°
09/04 - 09:00 PM67.8°60.7°
09/04 - 08:45 PM68.1°60.2°
09/04 - 08:30 PM68.4°61.2°
09/04 - 08:15 PM69.4°60.9°
09/04 - 08:00 PM70.2°61.0°
09/04 - 07:45 PM71.2°61.2°
09/04 - 07:30 PM72.7°61.7°
09/04 - 07:15 PM74.5°62.1°
09/04 - 07:00 PM76.3°61.9°
09/04 - 06:45 PM78.2°61.8°
09/04 - 06:30 PM80.3°61.8°
09/04 - 06:15 PM81.8°61.2°
09/04 - 06:00 PM83.1°61.0°
09/04 - 05:45 PM85.0°60.7°
09/04 - 05:30 PM85.9°61.2°
09/04 - 05:15 PM86.2°61.1°
09/04 - 05:00 PM86.7°61.3°
09/04 - 04:45 PM86.8°62.0°
09/04 - 04:30 PM87.5°62.0°
09/04 - 04:15 PM87.3°62.0°
09/04 - 04:00 PM87.0°62.3°
09/04 - 03:45 PM87.8°62.6°
09/04 - 03:30 PM87.6°62.6°
09/04 - 03:15 PM87.8°62.7°
09/04 - 03:00 PM88.9°62.9°
09/04 - 02:45 PM88.2°62.9°
09/04 - 02:30 PM86.8°62.2°
09/04 - 02:15 PM87.5°63.3°
09/04 - 02:00 PM86.8°63.5°
09/04 - 01:45 PM85.6°63.1°
09/04 - 01:30 PM84.8°62.7°
09/04 - 01:15 PM84.7°62.8°
09/04 - 01:00 PM84.6°63.8°
09/04 - 12:45 PM83.2°63.0°
09/04 - 12:30 PM81.7°62.6°
09/04 - 12:15 PM81.8°63.9°
09/04 - 12:00 PM80.2°63.3°
09/04 - 11:45 AM79.9°62.9°
09/04 - 11:30 AM79.0°62.4°
09/04 - 11:15 AM78.3°62.6°
09/04 - 11:00 AM76.6°62.3°
09/04 - 10:45 AM76.2°62.5°
09/04 - 10:30 AM75.4°62.7°
09/04 - 10:15 AM74.7°62.4°
09/04 - 10:00 AM73.6°62.2°
09/04 - 09:45 AM72.5°61.8°
09/04 - 09:30 AM72.1°61.6°
09/04 - 09:15 AM71.0°61.0°
09/04 - 09:00 AM70.2°60.7°
09/04 - 08:45 AM69.2°59.9°
09/04 - 08:30 AM68.4°59.3°
09/04 - 08:15 AM67.7°58.9°
09/04 - 08:00 AM66.8°58.6°
09/04 - 07:45 AM65.2°57.7°
09/04 - 07:30 AM62.7°56.8°
09/04 - 07:15 AM59.6°56.9°
09/04 - 07:00 AM57.2°56.0°
09/04 - 06:45 AM56.2°55.2°
09/04 - 06:30 AM55.8°54.9°
09/04 - 06:15 AM55.6°54.8°
09/04 - 06:00 AM55.4°54.8°
09/04 - 05:45 AM55.4°54.7°
09/04 - 05:30 AM55.3°54.5°
09/04 - 05:15 AM55.4°54.5°
09/04 - 05:00 AM55.5°54.4°
09/04 - 04:45 AM55.9°54.6°
09/04 - 04:30 AM56.2°54.7°
09/04 - 04:15 AM56.6°54.7°
09/04 - 04:00 AM57.1°54.8°
09/04 - 03:45 AM57.6°54.9°
09/04 - 03:30 AM58.2°55.0°
09/04 - 03:15 AM58.4°54.7°
09/04 - 03:00 AM59.1°54.9°
09/04 - 02:45 AM59.4°55.0°
09/04 - 02:30 AM59.8°55.3°
09/04 - 02:15 AM60.3°55.8°
09/04 - 02:00 AM60.8°56.2°
09/04 - 01:45 AM60.9°56.6°
09/04 - 01:30 AM60.5°57.3°
09/04 - 01:15 AM60.7°57.6°
09/04 - 01:00 AM61.1°57.7°
09/04 - 12:45 AM61.6°57.8°
09/04 - 12:30 AM62.2°57.8°
09/04 - 12:15 AM62.7°58.0°
09/04 - 12:00 AM63.3°58.2°
09/03 - 11:45 PM63.8°58.1°
09/03 - 11:30 PM63.8°58.3°
09/03 - 11:15 PM63.5°58.8°
09/03 - 11:00 PM64.1°58.8°
09/03 - 10:45 PM64.4°58.6°
09/03 - 10:30 PM64.9°59.1°
09/03 - 10:15 PM64.9°59.1°
09/03 - 10:00 PM65.1°59.5°
09/03 - 09:45 PM65.8°59.5°
09/03 - 09:30 PM66.2°59.5°
09/03 - 09:15 PM66.2°59.6°
09/03 - 09:00 PM66.3°59.8°
09/03 - 08:45 PM67.0°60.5°